Flag for Russia Weather past 2 weeks in Rostov-on-Don, Russia

Now
84 °F

Passing clouds.


Feels Like: 82 °F
Forecast: 66 / 81 °F
Wind: 3 mph from South

Location: Rostov-Na-Donu

Current Time: Aug 29, 2015 at 11:32:14 AM

Latest Report: Aug 29, 2015 at 10:30 AM


Visibility: N/A

Pressure: 30.12 "Hg

Humidity: 29%

Dew point: 48 °F

Location of Rostov-on-DonLocation

Historic Weather in Rostov-on-Don — Graph

°F

Rostov-on-Don temperature yesterday

Maximum temperature yesterday: 88 °F (at 2:00 PM)
Minimum temperature yesterday: 61 °F (at 3:00 AM)
Average temperature yesterday: 75 °F

Past Weeks' High & Low Weather Summary

 TemperatureHumidityPressure
High95 °F (Aug 15, 1:00 PM)94% (Aug 19, 2:00 AM)30.18 "Hg (Aug 19, 2:00 AM)
Low55 °F (Aug 21, 4:00 AM)16% (Aug 26, 2:00 PM)29.65 "Hg (Aug 16, 1:00 PM)
Average72 °F44%29.98 "Hg
* Reported Aug 14 10:00 AM — Aug 29 10:00 AM, Rostov-on-Don, Weather by CustomWeather, © 2015

Note: Actual official high and low records may vary slightly from our data, if they occured in-between our weather recording intervals... More about our weather records

Advertising

Rostov-on-Don weather history for previous 24 hours

 ConditionsComfort  
Time TempWeatherWind HumidityBarometerVisibility
10:00 AM
Sat, Aug 29
82 °FSunny.1 mph32%30.12 "Hg10 mi
9:00 AM77 °FSunny.1 mph42%30.12 "Hg10 mi
8:30 AM75 °FSunny.1 mph44%30.12 "Hg10 mi
8:00 AM72 °FSunny.1 mph44%30.12 "Hg10 mi
7:30 AM70 °FSunny.1 mph46%30.12 "Hg10 mi
7:00 AM64 °FSunny.1 mph60%30.12 "Hg10 mi
6:30 AM61 °FClear.1 mph59%30.12 "Hg10 mi
6:00 AM59 °FClear.No wind63%30.12 "HgN/A
5:30 AM59 °FClear.1 mph63%30.12 "HgN/A
5:00 AM59 °FClear.1 mph59%30.12 "HgN/A
4:30 AM61 °FClear.1 mph55%30.12 "HgN/A
4:00 AM61 °FClear.1 mph59%30.12 "HgN/A
3:30 AM63 °FClear.1 mph56%30.12 "HgN/A
3:00 AM64 °FClear.1 mph49%30.12 "HgN/A
2:30 AM63 °FClear.No wind52%30.12 "HgN/A
2:00 AM63 °FClear.No wind52%30.12 "HgN/A
1:30 AM63 °FClear.No wind52%30.12 "HgN/A
1:00 AM63 °FClear.3 mph49%30.12 "HgN/A
12:30 AM66 °FClear.3 mph43%30.12 "HgN/A
12:00 AM66 °FClear.3 mph43%30.12 "HgN/A
11:30 PM
Fri, Aug 28
68 °FClear.3 mph43%30.12 "HgN/A
11:00 PM66 °FClear.3 mph49%30.12 "HgN/A
10:30 PM72 °FClear.1 mph41%30.12 "HgN/A
10:00 PM68 °FClear.1 mph43%30.12 "HgN/A
9:30 PM68 °FClear.1 mph43%30.12 "HgN/A
9:00 PM68 °FClear.3 mph46%30.12 "HgN/A
8:30 PM72 °FClear.3 mph38%30.12 "HgN/A
8:00 PM75 °FClear.3 mph29%30.09 "HgN/A
7:30 PM77 °FClear.1 mph30%30.09 "HgN/A
7:00 PM81 °FClear.3 mph26%30.09 "HgN/A
6:30 PM84 °FSunny.1 mph22%30.09 "Hg10 mi
6:00 PM86 °FSunny.1 mph19%30.09 "Hg10 mi
5:00 PM86 °FSunny.1 mph18%30.09 "Hg10 mi
4:30 PM88 °FScattered clouds.6 mph17%30.09 "HgN/A
4:00 PM88 °FScattered clouds.8 mph17%30.09 "HgN/A
3:30 PM86 °FScattered clouds.3 mph18%30.09 "HgN/A
3:00 PM88 °FScattered clouds.1 mph17%30.09 "HgN/A
2:30 PM86 °FPartly sunny.3 mph17%30.09 "HgN/A
2:00 PM88 °FPartly sunny.6 mph16%30.09 "HgN/A
1:30 PM86 °FPartly sunny.6 mph18%30.09 "HgN/A
1:00 PM86 °FPartly sunny.3 mph18%30.09 "HgN/A
12:30 PM84 °FSunny.3 mph23%30.12 "Hg10 mi
12:00 PM84 °FSunny.1 mph25%30.12 "Hg10 mi
11:30 AM81 °FPartly sunny.3 mph30%30.12 "HgN/A
11:00 AM79 °FPartly sunny.3 mph32%30.12 "HgN/A
Weather by CustomWeather, © 2015

See weather overviewHow to use our weather pages